Showing default

LUCH (OLYMP), 40258

Orbit data source: Space-Track

LUCH (OLYMP), 40258 is a payload satellite owned by FSB (CIS) in GEO that was launched on Sat, 27 Sep 2014 UTC via a PROTON-M/BRIZ-M launch vehicle from the Tyuratam Missile And Space Complex (TTMTR). Payload-class satellites include a variety of spacecraft equipped with specific instruments for various scientific and technological missions. These include communications satellites like Starlink; space stations such as the ISS; scientific satellites like the Hubble; Earth observation satellites from companies like Planet Labs, Umbra, and HawkEye 360; GPS; miniature CubeSats for education and research; and military/defense satellites.

Not visible in the next 10 days
Identifier
40258, 2014-058A
Orbit
GEO
Last TLE update
9 hours ago
Origin
Manufacturer
Resehetnev ISS
Mission
Operational Defense Communications
Bus & Motor
EKSPRESS-2000, Unknown motor
Mass
1,930 kg wet, ~1,800 kg dry
Launch date (UTC)
2014-09-27 (11 years ago)
Launch vehicle
PROTON-M/BRIZ-M
Launch site
Tyuratam Missile And Space Complex (TTMTR)
Object type
Payload
Rocket body
Debris
Shape & HBR
Cyl + 2 Pan + 2 Dish, 16 m
Radar Cross Section
40.926 m², Large (>1 m²)

Expand to show TLE details & history

TLE from 9 hours ago
0 LUCH (OLYMP)
1 40258U 14058A   25181.92058528  .00000155  00000-0  00000-0 0  9994
2 40258   0.9861  87.1010 0001947  33.4594 163.5014  1.00440283 37474
Epoch: 2025-06-30T22:05Z
TLE epoch observation values (Epoch: 2025-06-30T22:05:38.568Z)
Latitude
-0.30744°
Longitude
33.44648°
Altitude
35,746.851 km
Speed
3.076 km/s
True Right ascension
18h 56m 19s
True Declination
0° 18' 26"
Sunlit
Object was in daylight at epoch
Visualization orbit readout
Latitude
-0.52893°
Longitude
163.40542°
Altitude
35,735.637 km
Speed
3.077 km/s
Apparent Right ascension
03h 52m 17s
Apparent Declination
-5° 32' 52"
Sunlit
Object is in daylight
Visualization observer readout
Local Sidereal Time
18:21:06
Azimuth
54.171° ENE
Elevation
-42.071°
Doppler factor
1
Orbital elements
Apogee altitude
35,748.696 km
Perigee altitude
35,732.295 km
Semi-major axis
42,118.633 km
Eccentricity
0.00019
Inclination
0.9861°
RAAN
87.101°
Arg. of periapsis
33.4594°
True anomaly
Unknown
Mean anomaly
163.5014°
Eccentric anomaly
Unknown
Mean motion
0.25109 °/min
Orbital period
1,433.74 mins
BSTAR
0
Loading historical data...
40258 neighbors
Loading maneuver chart data...
Loading SW <> Apogee altitude chart data...
Loading historical data...
Loading historical data...
Loading historical data...
Loading historical data...
Loading historical data...
Loading historical data...
Loading historical data...
Other satellites on launch #58 in the year 2014 (2014-09-27 UTC)

LUCH (OLYMP) Visibility

Observer location: undefined°, undefined°

LUCH (OLYMP) is likely not visible in the next few days
Span
Click to sort rows by Start time (UTC) header in descending order
Start Az.
Max El. time (UTC)
Max El. Az.
Max El.
End time (UTC)
End Az.
|